Regional Weather Roundup
Issued by NWS Upton, NY

Current Version | Previous Version | Text Only | Print | Product List | Glossary On
Versions: 1 2 3 4 5 6 7 8 9 10 11 12 13 14 15 16 17 18 19 20 21 22 23 24 25 26 27
000
ASUS41 KOKX 301904
RWROKX

REGIONAL WEATHER ROUNDUP
NATIONAL WEATHER SERVICE NEW YORK NY
300 PM EDT SAT APR 30 2016

NOTE: "FAIR" INDICATES FEW OR NO CLOUDS BELOW 12,000 FEET WITH NO
SIGNIFICANT WEATHER AND/OR OBSTRUCTIONS TO VISIBILITY.

NYZ071-072-176-178-NJZ106-104-302000-
NEW YORK CITY METRO AREA


CITY           SKY/WX    TMP DP  RH WIND       PRES   REMARKS
CENTRAL PARK   SUNNY     62  33  33 W7        30.23R
LAGUARDIA APRT PTSUNNY   62  31  31 VRB6G16   30.20R
KENNEDY INTL   PTSUNNY   57  40  52 S14       30.24R
NEWARK/LIBERTY PTSUNNY   62  34  35 VRB7      30.21R
BRNX BOT. GARD   N/A     61  36  39 SW9       30.22R
TETERBORO      MOSUNNY   62  36  37 S9        30.19R
$$

NYZ177-179-078>081-302000-
LONG ISLAND NEW YORK

CITY           SKY/WX    TMP DP  RH WIND       PRES   REMARKS
FARMINGDALE    SUNNY     56  43  61 S12       30.23R
ISLIP          PTSUNNY   55  39  54 S12       30.22R
SHIRLEY        SUNNY     55  38  52 S13       30.23R
RIVERHEAD        N/A     59  37  44 S2        30.21R
WESTHAMPTON    SUNNY     53  34  48 SE10      30.24R
EAST HAMPTON   FAIR      52  36  56 SE8       30.22R
MONTAUK POINT    N/A     52  40  63 S6        30.24R
$$

NYZ052-065-067-302000-
HUDSON VALLEY

CITY           SKY/WX    TMP DP  RH WIND       PRES   REMARKS
WHITE PLAINS   MOSUNNY   62  34  35 E8        30.19S
NEWBURGH       NOT AVBL
MONTGOMERY     CLOUDY    61  40  45 CALM      30.18R
POUGHKEEPSIE   CLOUDY    63  41  44 W5        30.17S
ALBANY         PTSUNNY   64  33  31 VRB3      30.17F
$$

NJZ001-105-106-008-010-013-015-019>022-104-302000-
NEW JERSEY

CITY           SKY/WX    TMP DP  RH WIND       PRES   REMARKS
NEWARK/LIBERTY PTSUNNY   62  34  35 VRB7      30.21R
TETERBORO      MOSUNNY   62  36  37 S9        30.19R
CALDWELL       CLOUDY    61  37  41 VRB7      30.20R
MORRISTOWN     CLOUDY    61  41  48 S3        30.20R
SOMERVILLE     CLOUDY    61  42  49 VRB6      30.18S
SUSSEX         CLOUDY    59  41  51 VRB6      30.20R
ANDOVER          N/A     58  39  49 VRB3      30.19R
TRENTON        CLOUDY    59  42  53 VRB5      30.20S
MILLVILLE      CLOUDY    59  43  55 E6        30.21S
ATLANTIC CITY  CLOUDY    57  39  51 SE12G21   30.22F
WRIGHTSTOWN    NOT AVBL
TOMS RIVER     MOSUNNY   57  36  44 E8        30.23S
BELMAR         MOSUNNY   56  34  43 SE12      30.24R
$$

PAZ047>061-062-071-302000-
EASTERN PENNSYLVANIA

CITY           SKY/WX    TMP DP  RH WIND       PRES   REMARKS
PHILADELPHIA   PTSUNNY   62  41  46 E5        30.21F
ALLENTOWN      CLOUDY    58  41  53 S7        30.20S
SCRANTON       CLOUDY    55  40  56 CALM      30.18S
$$

CTZ002-004>006-009-010-012-RIZ004-006-007-MAZ004-011-015-302000-
SOUTHERN NEW ENGLAND
 IN CT

CITY           SKY/WX    TMP DP  RH WIND       PRES   REMARKS
BRADLEY INTL   PTSUNNY   64  37  36 NE5       30.15S
HARTFORD       CLOUDY    66  39  37 W5        30.16S
DANBURY        CLOUDY    61  35  37 CALM      30.19R
WTRBRY/OXFORD  PTSUNNY   59  36  41 W8        30.19R
BRIDGEPORT     SUNNY     60  34  37 S8        30.20R
MERIDEN        PTSUNNY   65  39  38 S14       30.17R
NEW HAVEN      MOSUNNY   58  40  51 S10       30.20R
CHESTER        FAIR      59  36  41 S14       30.20R
GROTON         MOSUNNY   53  41  63 SE13      30.22R
WILLIMANTIC    CLOUDY    64  37  36 S13       30.16R

 IN RI

CITY           SKY/WX    TMP DP  RH WIND       PRES   REMARKS
PROVIDENCE     MOSUNNY   58  32  37 SE18      30.19R
BLOCK ISLAND   SUNNY     50  38  63 SE13      30.23R
WESTERLY       SUNNY     52  38  58 S13       30.23R

 IN MA

CITY           SKY/WX    TMP DP  RH WIND       PRES   REMARKS
BOSTON         MOSUNNY   53  32  44 E21       30.21S
WORCESTER      CLOUDY    60  35  39 CALM      30.16R
WESTFIELD      CLOUDY    64  35  34 SE3       30.15S
PROVINCETOWN   SUNNY     53  32  44 E13       30.23R
NANTUCKET      SUNNY     53  31  42 E12G25    30.21R
$$

ANZ330-335-338-340-345-350-353-355-302000-
COASTAL MARINE OBSERVATIONS


STATION/POSITION TIME  SKY/WX   TEMP    WIND        PRES    VSBY  WAVE
                                AIR SEA DIR/SP/G                  HT/PER
                 (UTC)          (F)     (DEG/KT/KT) (MB)    (MI)  (FT/S)
NY HARB ENTRANCE 1750            49 53  160/  8/ 10 1023.1          5/ 8
20S FIRE ISLAND  1750            47 49  120/  8/ 10 1023.3          6/ 8
GREAT SOUTH BAY  1815            49 58  180/ 10/ 12   N/A
23 SSW MONTAUK P 1850            46 49  140/  8/ 10 1023.3          4/ 8
15 E BARNEGAT LI 1822               51                N/A           6/ 9
HUDSON CANYON    1750            47 48              1022.9          6/ 8
KINGS POINT      1800            56 55              1022.2
EXECUTION ROCKS  NOT AVBL
CENTRAL LI SOUND 1815            53     210/  6/  6   N/A           0
EASTERN LI SOUND 1800            51 49  140/ 10/ 12   N/A
ROBBINS REEF     1800            53     170/ 13/ 14 1022.2
$$


>>>>>>>>>>>>>>>>>>>>>>>>>>>> KEY <<<<<<<<<<<<<<<<<<<<<<<<<<<
>                                                          <
>     SKY/WX - SKY CONDITION/PRESENT WEATHER               <
>     TMP    - TEMPERATURE IN FAHRENHEIT                   <
>     DP     - DEWPOINT IN FAHRENHEIT                      <
>     RH     - RELATIVE HUMIDITY IN PERCENT                <
>     WIND   - DIRECTION AND SPEED IN MPH                  <
>     PRES   - MEAN SEA LEVEL PRESSURE IN INCHES OF HG     <
>     WCI    - WIND CHILL INDEX                            <
>     VSB    - VISIBILITY IN MILES                         <
>     HX     - HEAT INDEX                                  <
>     TC     - TEMPERATURE IN CELSIUS                      <
>     VRB    - VARIABLE WIND DIRECTION                     <
>                                                          <
>>>>>>>>>>>>>>>>>>>>>>>>>>>> KEY <<<<<<<<<<<<<<<<<<<<<<<<<<<






USA.gov is the U.S. government's official web portal to all federal, state and local government web resources and services.